Погода в Барде

Погода в Барде : погода сейчас, прогноз погоды и архив. Всё, что Вы хотите узнать о погоде в Барде!

Поиск расширенной информации на нашем сайте:

Другие новости

Новости СМИ2

Главная страница сайта

Новости сайта

03.07.2017

Напоминаем, что на нашем специализированном сайте Метеоцентр.Азия вы можете получить высокодетализированные автоматические прогнозы погоды по пунктам России, СНГ и мира в авиационном формате (включающие направление и скорость ветра, видимость, явления погоды, количество и форму облачности, нижнюю и верхнюю границу облачности).

Рекомендуем: Как убрать зубную боль aldenta.ru.

Погода в Барде - сегодня

Время (UTC), дата Ветер
(°,м/с) 
Видим.   Явления Облачность Т
(°С)
Тd
(°С)
f(%) Тe
(°С)
Pmin
(гПа)
dP
(гПа)
Po
(мм)
O2
(г/м3)
Тmin Tmax R s Состояние
почвы
00 07.05.17 290 (З) 10 км    8/4 600 м верхняя 
[Cu med, cong|Ci fib]
+13.7 +12 89 +19  1012.7  -0.9  753  287           
03 07.05.17 290 (З) 20000 м    ясно 
+12.7 +11.4 92 +17  1012.2  -0.5  753  288      0.0     
06 07.05.17 290 (З) 20000 м    3/0 верхняя 
[Ci fib]
+21.1 +15.2 69 +30  1012.4  0.2  753  279           
12 27.05.17 тихо ()   4000 м  гроза без осадков  8/8 600 м 
+24.6 +18.7 70 +25  1010.5  -1.7             
18 02.06.17 280 (З) 10 км  в посл. час гроза  8/8 600 м кучево-дожд. 
[Cb calv]
+21.1 +15.9 72 +31  1012.1  3.2  753  278    +30.1       
06 05.06.17 180 (Ю) 20000 м    3/3 600 м 
[Cu med, cong]
+22.9 +16.5 67 +34  1020.3  0.6  759  279           
12 05.06.17 140 (ЮВ) 20000 м    4/4 600 м 
[Cu med, cong]
+27.7 +17.2 53 +40  1018.9  758  274           
09 06.07.17 180 (Ю) 20000 м    8/8 600 м 
[Cu med, cong]
+30.1 +20.2 55 +49  1013.1  -0.3  754  269           
15 16.07.17 120 (ЮВ) 20000 м    4/0 средняя 
[Ac trans]
+32.7 +16.4 38 +44  1011.1  -0.5  752  267           
15 24.07.17 220 (ЮЗ) 20000 м    ясно 
+31.7 +18.3 45 +47  1006.3  -0.9  749  266           
12 26.07.17 тихо ()   20000 м    5/3 600 м верхняя 
[Cu med, cong|Ci fib]
+35.2 +18.2 37 +50  1005.1  -0.9  748  263           
00 02.08.17 тихо ()   10 км    ясно 
+25.5 +16.8 59 +37  1018.2  0.5  758  276           
09 18.08.17 тихо ()   20000 м    ясно 
+31.1 +19.2 49 +48  1010.9  -0.6  752  268           
12 20.08.17 180 (Ю) 20000 м    6/6 600 м 
[Cu med, cong]
+33.7 +19 42 +50  1013.4  -2.4  754  266           
15 23.08.17 180 (Ю) 20000 м    ясно 
+32.9 +18.9 44 +49  1007.5  -0.8  750  265           
06 24.08.17 тихо ()   20000 м    ясно 
+28.5 +18.2 54 +43  1015.7  756  272           
09 24.08.17 170 (Ю) 20000 м    ясно 
+32.7 +17.4 40 +46  1015  -0.6  755  268           
06 28.08.17 150 (ЮВ) 20000 м    3/3 600 м 
[Cu med, cong]
+26.1 +17 57 +38  1014.1  0.5  755  274           
09 28.08.17 160 (Ю) 20000 м    4/4 600 м 
[Cu med, cong]
+31.3 +18.7 47 +47  1011.9  -2.1  753  268           
15 28.08.17 тихо ()   20000 м    5/5 600 м 
[Cu med, cong]
+30.1 +19.7 54 +48  1008.2  -1.8  750  268           
18 28.08.17 120 (ЮВ) 10 км    ясно 
+25 +17.8 64 +39  1007.9  -0.3  750  273    +33.5       
09 01.09.17 140 (ЮВ) 20000 м    ясно 
+32 +21.9 55 +55  1012  -0.9  753  266           
18 01.09.17 180 (Ю) 10 км    ясно 
+27.7 +19 59 +44  1010.5  1.5  752  271    +34.6       
03 02.09.17 180 (Ю) 20000 м    4/4 600 м 
[Cu med, cong]
+24 +20.8 82 +44  1011.2  752  273           
06 05.09.17 тихо ()   20000 м    ясно 
+26.9 +20.9 70 +47  1015.3  0.2  755  272           
Время (UTC), дата Ветер
(°,м/с) 
Видим.   Явления Облачность Т
(°С)
Тd
(°С)
f(%) Тe
(°С)
Pmin
(гПа)
dP
(гПа)
Po
(мм)
O2
(г/м3)
Тmin Tmax R s Состояние
почвы

Для получения пояснительной информации подведите курсор к названию столбца.

ПОГОДА в Барде - архив

Всё, что Вы хотите узнать о погоде в Барде - удобно и подробно!

Выберите нужную дату (начиная с 1 января 2015* года) и нажмите кнопку "Найти".
Будут отображены архивные сводки погоды по пункту Барда, начиная с указанной даты.


Отображать данные в формате CSV (для использования в таблицах Excel)


Внимание! Наш архив погоды предназначен исключительно для личного некоммерческого использования в познавательных целях. Если Вам необходимы официальные справки о состоянии погоды (для производственных, юридических, коммерческих и т.п. целей), обращайтесь в органы Росгидромета.

*Примечание: данная дата относится к архиву по метеостанциям СССР (Россия, СНГ, Балтия).
Архив по метеостанциям Зарубежной Европы и Азии (кроме Китая) хранится 10 дней, по другим регионам земного шара (Китай, Африка, Америка, Австралия, Океания) - 1 день.

Барда - район местоположения метеостанции


Название, широта, долгота, высота метеостанции:
Барда 40.4°ш. 47.1°д. 69 м над ур. моря [Азербайджан]

Дополнительная информация

В oтличие oт бoльшинства пoгoдных сайтoв мы публикуем пoдрoбную метеoинфoрмацию в детальнoм прoфессиoнальнoм фoрмате.

Характеристики температуры и влажнoсти вoздуха измеряются на высoте 2 м в тени вдали oт зданий и деревьев.
Скoрoсть ветра измеряется на высoте 10 м (на урoвне рoста челoвека скoрoсть ветра ниже в 1.5-2 раза). Если метеoстанция нахoдится в гoрoде или в лесу, тo скoрoсть ветра занижена на 2-4 м/с пo сравнению с oткрытым местoм. Скoрoсть ветра над акватoриями крупных рек и oзёр, а также на вершинах хoлмoв на 2-5 м/с выше, чем в oбычных услoвиях.
Атмoсфернoе давление в разных тoчках местнoсти мoжет значительнo oтличаться oт давления на метеoстанции, в зависимoсти oт услoвий рельефа (при пoдъёме на 10 м давление пoнижается примернo на 1 мм рт.ст.).